This is the latest recevied weather packets stored in our database for station/object KD4EG. If no packets are shown the sender has not sent any weather packets the latest 10 day(s).
| Time | Temp. | Humidity | Pressure | Rain* | Wind** | Luminosity | Snow |
|---|---|---|---|---|---|---|---|
| 1778018921 | 25° C | 35% | 1013.8 hPa | 0 mm | - | 77 W/m² | - |
| 1778018618 | 25° C | 34% | 1013.9 hPa | 0 mm | - | 58 W/m² | - |
| 1778018316 | 25.56° C | 34% | 1013.7 hPa | 0 mm | - | 131 W/m² | - |
| 1778018014 | 25.56° C | 32% | 1013.8 hPa | 0 mm | - | 193 W/m² | - |
| 1778017712 | 25.56° C | 32% | 1014 hPa | 0 mm | - | 244 W/m² | - |
| 1778017409 | 26.11° C | 34% | 1013.7 hPa | 0 mm | - | 279 W/m² | - |
| 1778017105 | 25.56° C | 35% | 1013.8 hPa | 0 mm | - | 311 W/m² | - |
| 1778016804 | 25.56° C | 35% | 1013.6 hPa | 0 mm | - | 337 W/m² | - |
| 1778016499 | 25.56° C | 34% | 1013.6 hPa | 0 mm | - | 167 W/m² | - |
| 1778016197 | 26.11° C | 34% | 1013.8 hPa | 0 mm | - | 275 W/m² | - |
| 1778015893 | 25.56° C | 34% | 1013.9 hPa | 0 mm | - | 413 W/m² | - |
| 1778015591 | 25.56° C | 34% | 1014 hPa | 0 mm | - | 149 W/m² | - |
| 1778015287 | 25.56° C | 32% | 1013.7 hPa | 0 mm | - | 250 W/m² | - |
| 1778014984 | 25.56° C | 32% | 1013.6 hPa | 0 mm | - | 398 W/m² | - |
| 1778014681 | 26.67° C | 32% | 1013.6 hPa | 0 mm | - | 308 W/m² | - |
| 1778014379 | 26.11° C | 30% | 1013.9 hPa | 0 mm | - | 426 W/m² | - |
| 1778014075 | 26.67° C | 29% | 1013.8 hPa | 0 mm | - | 457 W/m² | - |
| 1778013773 | 26.11° C | 29% | 1014 hPa | 0 mm | - | 339 W/m² | - |
| 1778013470 | 26.11° C | 27% | 1013.9 hPa | 0 mm | - | 231 W/m² | - |
| 1778013167 | 26.67° C | 27% | 1013.8 hPa | 0 mm | - | 263 W/m² | - |
| 1778012863 | 27.22° C | 26% | 1013.9 hPa | 0 mm | - | 324 W/m² | - |
| 1778012559 | 26.67° C | 28% | 1013.8 hPa | 0 mm | - | 339 W/m² | - |
| 1778012256 | 27.22° C | 27% | 1013.8 hPa | 0 mm | - | 451 W/m² | - |
| 1778011954 | 26.67° C | 27% | 1013.6 hPa | 0 mm | - | 423 W/m² | - |
| 1778011652 | 26.67° C | 26% | 1013.9 hPa | 0 mm | - | 385 W/m² | - |
* Rain latest hour (hover to see other rain measurements)
** Current wind speed in m/s (hover to see current wind gust speed)